User: anonymous
Location: Unspecified
(0.0000°N, 0.0000°E)
Time: 23:58:03
(UTC+02:00)
Language:

Centaur AC-64 - Orbit

View from above orbital plane
View from above orbital plane
View from above satellite
View from above satellite

Ground track
Ground track

The orbit data is extracted from the following two-line orbital elements,

1 15874U 85055B   14231.36263755  .00001688  00000-0  82995-3 0  5283
2 15874 023.2953 320.5293 6609408 249.2431 230.2307 03.13158441297682
Epoch (UTC): 19 August 2014 08:42:11
Eccentricity: 0.6609408
inclination: 23.2953°
perigee height: 313 km
apogee height: 26399 km
right ascension of ascending node: 320.5293°
argument of perigee: 249.2431°
revolutions per day: 3.13158441
mean anomaly at epoch: 230.2307°
orbit number at epoch: 29768

The dashed part of the orbit path shows where the satellite is in the earth's shadow,  

DLR